TimePST,TemperatureF,Dew PointF,Humidity,Sea Level PressureIn,VisibilityMPH,Wind Direction,Wind SpeedMPH,Gust SpeedMPH,PrecipitationIn,Events,Conditions,WindDirDegrees,DateUTC
12:56 AM,37.0,30.9,79,30.21,10.0,WNW,4.6,-,N/A,,Clear,300,2011-11-17 08:56:00
1:56 AM,37.0,30.0,76,30.20,10.0,WNW,5.8,-,N/A,,Clear,300,2011-11-17 09:56:00
2:56 AM,37.9,30.9,76,30.19,10.0,Calm,Calm,-,N/A,,Clear,0,2011-11-17 10:56:00
3:56 AM,36.0,28.9,76,30.19,10.0,Calm,Calm,-,N/A,,Clear,0,2011-11-17 11:56:00
4:56 AM,33.1,28.0,82,30.20,10.0,Calm,Calm,-,N/A,,Clear,0,2011-11-17 12:56:00
5:56 AM,30.9,27.0,85,30.21,10.0,NW,3.5,-,N/A,,Clear,310,2011-11-17 13:56:00
6:56 AM,32.0,27.0,82,30.22,10.0,Calm,Calm,-,N/A,,Clear,0,2011-11-17 14:56:00
7:56 AM,39.9,33.1,77,30.21,10.0,Calm,Calm,-,N/A,,Clear,0,2011-11-17 15:56:00
8:56 AM,46.9,34.0,61,30.20,10.0,Calm,Calm,-,N/A,,Clear,0,2011-11-17 16:56:00
9:56 AM,55.0,34.0,45,30.17,10.0,Calm,Calm,-,N/A,,Clear,0,2011-11-17 17:56:00
10:56 AM,61.0,33.1,35,30.13,10.0,Calm,Calm,-,N/A,,Clear,0,2011-11-17 18:56:00
11:56 AM,64.9,30.9,28,30.09,10.0,Calm,Calm,-,N/A,,Clear,0,2011-11-17 19:56:00
12:56 PM,66.9,30.9,26,30.04,10.0,Calm,Calm,-,N/A,,Clear,0,2011-11-17 20:56:00
1:56 PM,70.0,28.9,22,30.01,10.0,Variable,3.5,-,N/A,,Clear,0,2011-11-17 21:56:00
2:56 PM,72.0,19.9,14,29.99,10.0,West,24.2,29.9,N/A,,Clear,280,2011-11-17 22:56:00
3:56 PM,66.0,28.0,24,30.00,10.0,West,19.6,-,N/A,,Clear,280,2011-11-17 23:56:00
4:56 PM,61.0,28.9,30,30.01,10.0,West,18.4,-,N/A,,Clear,270,2011-11-18 00:56:00
5:56 PM,57.9,25.0,28,30.01,10.0,WSW,10.4,-,N/A,,Clear,250,2011-11-18 01:56:00
6:56 PM,57.0,23.0,27,30.01,10.0,West,10.4,-,N/A,,Clear,270,2011-11-18 02:56:00
7:56 PM,55.9,17.1,22,30.00,10.0,WSW,6.9,-,N/A,,Clear,250,2011-11-18 03:56:00
8:56 PM,57.9,25.0,28,29.98,10.0,West,26.5,-,N/A,,Clear,280,2011-11-18 04:56:00
9:56 PM,57.0,28.9,34,29.98,10.0,West,27.6,-,N/A,,Clear,270,2011-11-18 05:56:00
10:56 PM,55.9,30.0,37,29.97,10.0,West,24.2,-,N/A,,Clear,280,2011-11-18 06:56:00
11:56 PM,55.0,30.0,38,29.96,10.0,West,20.7,-,N/A,,Clear,280,2011-11-18 07:56:00